Flag for U.S.A. Weather past 2 weeks in Raleigh, North Carolina, U.S.A.

Now
72 °F

Partly cloudy.


Feels Like: 71 °F
Forecast: 71 / 84 °F
Wind: 6 mph from South

Location: Raleigh-Durham International Airport

Current Time: May 27, 2015 at 5:11:07 AM

Latest Report: May 27, 2015 at 3:51 AM


Visibility: 10 mi

Pressure: 30.18 "Hg

Humidity: 84%

Dew point: 67 °F

Location of RaleighLocation

Historic Weather in Raleigh — Graph

°F

Raleigh temperature yesterday

Maximum temperature yesterday: 86 °F (at 1:51 PM)
Minimum temperature yesterday: 65 °F (at 5:51 AM)
Average temperature yesterday: 77 °F

Past Weeks' High & Low Weather Summary

 TemperatureHumidityPressure
High90 °F (May 18, 2:51 PM)97% (May 19, 11:51 PM)30.45 "Hg (May 19, 11:51 PM)
Low49 °F (May 23, 5:51 AM)27% (May 13, 4:51 PM)29.84 "Hg (May 21, 12:56 PM)
Average71 °F66%30.17 "Hg
* Reported May 12 3:51 AM — May 27 3:51 AM, Raleigh, Weather by CustomWeather, © 2015

Note: Actual official high and low records may vary slightly from our data, if they occured in-between our weather recording intervals... More about our weather records

Advertising

Raleigh weather history for previous 24 hours

 ConditionsComfort  
Time TempWeatherWind HumidityBarometerVisibility
3:51 AM
Wed, May 27
72 °FPartly cloudy.6 mph84%30.18 "Hg10 mi
2:51 AM73 °FPassing clouds.9 mph84%30.19 "Hg10 mi
1:51 AM73 °FPassing clouds.9 mph84%30.21 "Hg10 mi
12:51 AM74 °FPartly cloudy.9 mph82%30.23 "Hg10 mi
11:51 PM
Tue, May 26
75 °FPartly cloudy.9 mph79%30.22 "Hg10 mi
10:51 PM76 °FPartly cloudy.10 mph80%30.22 "Hg10 mi
9:51 PM77 °FPartly cloudy.9 mph77%30.20 "Hg10 mi
8:51 PM79 °FPartly sunny.13 mph72%30.18 "Hg10 mi
7:51 PM81 °FBroken clouds.6 mph65%30.19 "Hg10 mi
6:51 PM84 °FBroken clouds.8 mph59%30.17 "Hg10 mi
5:51 PM86 °FBroken clouds.8 mph51%30.17 "Hg10 mi
4:51 PM86 °FBroken clouds.7 mph53%30.18 "Hg10 mi
3:51 PM86 °FBroken clouds.9 mph53%30.20 "Hg10 mi
2:51 PM86 °FScattered clouds.8 mph51%30.23 "Hg10 mi
1:51 PM86 °FScattered clouds.10 mph53%30.25 "Hg10 mi
12:51 PM83 °FScattered clouds.7 mph59%30.27 "Hg10 mi
11:51 AM82 °FScattered clouds.12 mph58%30.28 "Hg10 mi
10:51 AM80 °FScattered clouds.9 mph64%30.29 "Hg10 mi
9:51 AM77 °FScattered clouds.9 mph69%30.30 "Hg10 mi
8:51 AM74 °FScattered clouds.9 mph76%30.30 "Hg10 mi
7:51 AM70 °FScattered clouds.3 mph87%30.30 "Hg10 mi
6:51 AM67 °FPassing clouds.7 mph90%30.28 "Hg10 mi
5:51 AM65 °FPassing clouds.No wind91%30.27 "Hg10 mi
Weather by CustomWeather, © 2015

See weather overviewHow to use our weather pages